SL-14 R/B

Satellite information

Favourite Embed

Satellite Type and Status

ROCKET BODYIN ORBIT

Key statistics

Satellite SL-14 R/B at a glance.

Uptime

16762

Days in orbit

Revolutions

≈ 14.9

Per day

Orbit

LEO

Low Earth Orbit

Inclination

82.5

Latest

Satellite identification and parameters

Extended collection of information and parameters for SL-14 R/B.

Object identification

Identified? True

Debris? False

Object name: SL-14 R/B

International designator: 1980-005B

Object number (NORAD): 11672

Object ID (CCSDS): 11672

Country: COMMONWEALTH OF INDEPENDENT STATES (CIS)

Current information (Y/N): Y

RCS size: LARGE

Orbital parameters

Period: 96.593 minutes

Inclination: 82.5148 deg

SMA: 6973.598 km

Apoapsis: 607.57 km

Periapsis: 583.357 km

RAAN: 28.8678 deg

Eccentricy: 0.00173605

Argument of periapsis: 90.8164 deg

Mean anomaly: 269.5044 deg

Mean motion: 14.90793049 rev/day

Mean motion (dot): 0.000008 rev/day2

B* drag term: 0.00007862473 1/REarth

Two-line elements (TLE)

Creation date: Dec. 14, 2025, 3:07 a.m.

Reference frame: TEME

Reference center: EARTH

Epoch: Dec. 13, 2025, 2:47 p.m. UTC

TLE line 0: 0 SL-14 R/B

TLE line 1: 1 11672U 80005B 25347.61661445 .00000800 00000-0 78625-4 0 9994

TLE line 2: 2 11672 82.5148 28.8678 0017361 90.8164 269.5044 14.90793049463663

Live tracking on map

Real-time ground track for satellite SL-14 R/B.

In-orbit conjunctions

A list of the most updated potential collisions computed for object SL-14 R/B.

Target Orbit TCA Probability of collision Miss distance Type
COSMOS 2251 DEB LEO 2025-04-07 22:56:12 0.0001957556 32.0 (m) DEBRIS
CZ-6A DEB SSO 2024-09-01 12:45:22 0.0001177851 861.0 (m) DEBRIS

Associated space launch

Experimental ocean-monitoring satellite

SL-14 R/B was lifted into orbit during the mission ‘Tsiklon-3 | Okean-E 2’, on board a Tsiklon-3 space rocket.

The launch took place on Jan. 23, 1980, 7 a.m. from 32/1.

For more information about the launch, click the button.

Launch to space Tsiklon-3 | Okean-E 2
Tsiklon-3 | Okean-E 2

Agency: N/A

Status: Launch Successful

Launch date: Jan. 23, 1980, 7 a.m. UTC

Rocket: Tsiklon-3

Launch pad: 32/1

Location: Plesetsk Cosmodrome, Russian Federation

...

Latest news about this satellite

There are no fresh news available about this satellite. Check back as we update our databases every day.


Newsletter sign-up

Weekly statistics, charts and insights to help you stay on top of the space industry.